ENFL

Details ICAO ENFL (FRO)
Name FLORO
Region Norway
Timezone Europe/Oslo (UTC+2.0)
Plans Departing 23
Arriving 29
Stats Elevation 37 ft / 11 m (AMSL)
Location 61.582653° 5.018651°
Runways 1
Magnetic Variation 0.767° E
Sunrise 2018-05-26 02:25:20 UTC / 2018-05-26 04:25:20 Local
Sunset 2018-05-26 20:51:28 UTC / 2018-05-26 22:51:28 Local
Advertisement - Login to hide

Runways

ID Width Length Bearing (true) Bearing (mag) Surface Threshold Offset Overrun Length
07 98 ft / 30 m 4,131 ft / 1,259 m 70.86° 70.09° Asphalt 112 ft / 34 m 0 ft / 0 m
25 98 ft / 30 m 4,131 ft / 1,259 m 250.87° 250.10° Asphalt 66 ft / 20 m 0 ft / 0 m

Approach Navaids

Runway Type Ident Frequency Range Bearing (true) Bearing (mag) Slope Elevation
07 Localiser FL 108.90 MHz 18 nm / 33 km 70.88° 70.11° - 37 ft / 11 m (AMSL)

Map

Weather


0- 5 10 15 20 25 30 35+ Temperature / ° C

Clouds and Precipitation
Forecast for 2018-05-26 06:00 UTC. Updated 5 hours ago

Ground ~20,000 ft ~40,000 ft Winds

METAR

ENFL 260950Z 30015KT CAVOK 15/09 Q1031

TAF

Not found

Frequencies

Tower 119.20 MHz AFIS
Tower 121.85 MHz AFIS
Warning: Do not use this data for real-world aviation or navigation. No guarantee of current accuracy is given.